Flag for U.S.A. Weather past 2 weeks in Albuquerque, New Mexico, U.S.A.

Now
66 °F

Clear.


Feels Like: 66 °F
Forecast: 54 / 82 °F
Wind: 8 mph from North

Location: Albuquerque International Airport

Current Time: Aug 28, 2014 at 3:19:01 AM

Latest Report: Aug 28, 2014 at 2:52 AM


Visibility: 10 mi

Pressure: 29.99 "Hg

Humidity: 47%

Dew point: 45 °F

Location of AlbuquerqueLocation

Historic Weather in Albuquerque — Graph

°F

Albuquerque temperature yesterday

Maximum temperature yesterday: 79 °F (at 4:52 PM)
Minimum temperature yesterday: 60 °F (at 6:52 AM)
Average temperature yesterday: 70 °F

Past Weeks' High & Low Weather Summary

 TemperatureHumidityPressure
High93 °F (Aug 16, 5:52 PM)90% (Aug 14, 5:52 AM)30.26 "Hg (Aug 14, 5:52 AM)
Low58 °F (Aug 22, 11:52 PM)12% (Aug 21, 4:52 PM)29.67 "Hg (Aug 19, 3:52 PM)
Average74 °F47%29.92 "Hg
* Reported Aug 13 1:52 AM — Aug 28 1:52 AM, Albuquerque, Weather by CustomWeather, © 2014

Note: Actual official high and low records may vary slightly from our data, if they occured in-between our weather recording intervals... More about our weather records

Advertising

Albuquerque weather history for previous 24 hours

 ConditionsComfort  
Time TempWeatherWind HumidityBarometerVisibility
1:52 AM
Aug 28
67 °FPassing clouds.8 mph45%30.00 "Hg10 mi
12:52 AM68 °FPassing clouds.7 mph44%30.00 "Hg10 mi
11:52 PM
Aug 27
68 °FPassing clouds.5 mph59%30.02 "Hg10 mi
10:52 PM71 °FPassing clouds.3 mph51%30.01 "Hg10 mi
9:52 PM71 °FPassing clouds.No wind53%30.02 "Hg10 mi
8:52 PM75 °FPassing clouds.5 mph42%30.01 "Hg10 mi
7:52 PM77 °FScattered clouds.3 mph35%29.98 "Hg10 mi
6:52 PM79 °FScattered clouds.3 mph34%29.97 "Hg10 mi
5:52 PM79 °FScattered clouds.5 mph35%29.98 "Hg10 mi
4:52 PM79 °FScattered clouds.8 mph32%30.01 "Hg10 mi
3:52 PM76 °FScattered clouds.9 mph40%30.03 "Hg10 mi
2:52 PM78 °FMostly cloudy.5 mph37%30.04 "Hg10 mi
1:52 PM78 °FBroken clouds.10 mph39%30.06 "Hg10 mi
12:52 PM75 °FScattered clouds.No wind48%30.08 "Hg10 mi
11:52 AM72 °FScattered clouds.5 mph53%30.10 "Hg10 mi
10:52 AM68 °FScattered clouds.No wind63%30.11 "Hg10 mi
9:52 AM67 °FScattered clouds.No wind66%30.12 "Hg10 mi
8:52 AM64 °FBroken clouds.No wind78%30.12 "Hg10 mi
7:52 AM62 °FScattered clouds.3 mph83%30.11 "Hg10 mi
6:52 AM60 °FPassing clouds.3 mph90%30.10 "Hg10 mi
5:52 AM61 °FPartly cloudy.3 mph87%30.08 "Hg10 mi
4:52 AM61 °FPartly cloudy.6 mph87%30.06 "Hg10 mi
3:52 AM61 °FLow clouds.14 mph90%30.06 "Hg10 mi
Weather by CustomWeather, © 2014

See weather overviewHow to use our weather pages